Hourly Data Report for April 18, 2021

TORONTO CITY
ONTARIO
Current Station Operator: ECCC - MSC

43°40'00.000" N
79°24'00.000" W
112.50 m
6158355
71508
XTO

Download Data

Hourly Data (April 2021)
Hourly Data Report for April 18, 2021
TIME
LST
Temp Definition
°C
Dew Point Definition
°C
Rel Hum Definition
%
Precip. Amount Definition
mm

Wind Dir Definition
10's deg

Wind Spd Definition
km/h
Visibility Definition
km
Stn Press Definition
kPa
Hmdx Definition


Wind Chill Definition


Weather Definition


00:00 6.7 2.7 76 0.0       99.70     LegendNANA
01:00 6.1 2.5 77 0.0       99.69     LegendNANA
02:00 5.9 1.8 75 0.0       99.67     LegendNANA
03:00 5.2 1.1 75 0.0       99.68     LegendNANA
04:00 4.8 1.0 76 0.0       99.67     LegendNANA
05:00 5.0 1.3 77 0.0       99.68     LegendNANA
06:00 6.0 1.2 71 0.0       99.70     LegendNANA
07:00 6.4 1.3 70 0.0       99.76     LegendNANA
08:00 8.5 2.2 64 0.0       99.77     LegendNANA
09:00 11.7 2.6 54 0.0       99.77     LegendNANA
10:00 11.4 2.2 53 0.0       99.77     LegendNANA
11:00 12.4 2.8 52 0.0       99.76     LegendNANA
12:00 11.8 2.0 51 0.0       99.71     LegendNANA
13:00 12.2 2.6 52 0.0       99.64     LegendNANA
14:00 13.0 4.1 55 0.0       99.62     LegendNANA
15:00 11.7 4.0 59 0.0       99.64     LegendNANA
16:00 10.3 5.2 71 0.0       99.59     LegendNANA
17:00 10.7 5.0 68 0.0       99.61     LegendNANA
18:00 10.5 4.1 65 0.0       99.60     LegendNANA
19:00 9.9 3.9 66 0.0       99.58     LegendNANA
20:00 9.0 4.7 74 0.0       99.63     LegendNANA
21:00 8.5 4.5 76 0.0       99.64     LegendNANA
22:00 9.1 -1.6 47 0.0       99.64     LegendNANA
23:00 8.2 -1.7 49 0.0       99.66     LegendNANA

Notes on Data Quality.

Legend

  • E = Estimated
  • M = Missing
  • NA = Not Available*
  • [empty] = Indicates an unobserved value
Date modified: